Location: Rounton
(54.4000°N, 1.3500°W)
Time: 14:33:26
(UTC+00:00)

Transit 2A Rocket - Pass Details

Date: 09 December 2021
Orbit: 584 x 918 km, 66.7° (Epoch: 17 January)

Event Time Altitude Azimuth Distance (km) Brightness Sun altitude
Rises 06:13:05 0° 192° (SSW) 3,365 8.4 -16.2°
Reaches altitude 10° 06:15:35 10° 185° (S) 2,479 7.8 -15.9°
Maximum altitude 06:20:57 41° 117° (ESE) 1,274 6.7 -15.2°
Drops below altitude 10° 06:26:37 10° 50° (NE) 2,613 8.2 -14.4°
Sets 06:29:18 0° 43° (NE) 3,567 8.8 -14.0°
